Theta_e
323 325 325 325 327 327 324 323 320 320 323 320 317 317 320 328 318 309 331 351 335 339 356 344 339 338 330 337 348 347 345 345 350 360 359 352 347 346 347 347 348 349 351 353 353 353 353 351 351 354 355 355 356 356 357 359 360 362 363 363 363 364 364 363 363 363 363 362 362 362 362 361 360 360 359 359 359 358 357 357 356 355 355 355 354 352 351
322 323 326 325 324 325 325 325 324 322 322 321 320 321 323 325 322 320 334 344 339 344 350 341 340 344 343 346 347 345 347 351 355 360 360 355 351 347 347 348 348 348 351 353 353 353 355 354 352 353 354 356 355 356 357 358 359 361 363 363 364 364 364 364 363 363 363 363 362 362 362 361 361 360 359 359 359 358 357 357 356 356 355 355 354 353 352
321 320 326 326 323 324 322 323 327 324 323 322 320 321 324 323 323 325 330 332 332 338 346 342 338 347 356 349 343 348 357 365 367 359 354 352 350 346 346 347 346 347 349 352 353 354 356 354 352 351 354 356 356 356 357 357 358 360 361 363 364 364 364 364 363 363 363 363 363 362 362 361 361 360 359 359 358 358 358 357 356 356 356 355 355 354 353
321 320 322 323 322 324 319 318 324 323 321 322 320 322 325 324 324 327 324 323 331 343 348 343 336 341 344 340 348 357 359 369 374 360 352 351 348 347 347 347 348 349 350 352 353 354 355 352 351 352 354 355 355 356 356 356 358 359 360 362 363 363 364 364 364 363 363 363 362 362 362 361 361 361 360 359 359 358 358 357 357 356 356 355 355 354 354
324 322 321 321 320 317 314 316 322 325 325 325 324 325 328 327 328 327 322 324 340 354 351 341 336 335 334 340 357 359 353 363 367 356 355 356 349 348 348 346 348 349 349 352 353 353 352 351 351 352 354 355 356 356 356 356 357 358 360 361 362 363 364 363 363 363 363 363 362 362 362 361 361 361 360 359 359 358 357 357 357 357 356 355 355 355 354
326 323 322 321 316 313 319 326 327 328 328 327 328 327 327 329 328 327 327 331 342 352 348 341 337 335 334 338 348 351 348 354 358 355 358 360 355 351 349 347 348 349 349 351 351 351 350 350 351 353 354 355 357 356 356 356 356 357 359 360 361 362 363 363 364 363 362 363 362 362 362 361 361 361 360 360 359 358 357 357 357 357 357 356 355 355 354
327 325 322 318 314 319 336 343 334 330 328 327 334 337 338 336 331 332 342 344 342 344 343 340 342 345 343 338 339 343 343 346 351 351 353 356 356 354 352 349 349 349 351 352 351 349 349 349 350 351 353 355 356 356 357 356 356 357 358 360 361 362 363 363 363 363 363 363 362 362 362 361 361 361 360 360 359 358 358 357 357 357 356 356 355 355 354
327 326 322 319 320 331 344 342 334 335 334 329 336 343 348 351 345 345 354 354 351 351 347 344 347 352 353 348 343 344 344 345 345 344 345 350 350 350 355 358 356 355 352 350 350 350 348 349 351 350 351 354 356 357 358 357 356 357 358 359 361 361 362 363 363 363 363 362 362 362 361 361 361 361 361 360 360 359 358 358 357 358 357 357 356 355 354
329 325 322 322 324 326 331 335 337 341 339 336 340 343 346 354 355 351 355 359 358 355 355 354 353 355 358 358 351 346 347 346 343 342 344 345 346 353 360 359 354 351 349 348 348 348 348 350 351 351 351 352 354 356 358 357 357 357 357 358 360 361 362 362 363 364 363 363 362 361 361 361 361 361 361 361 361 360 359 358 358 358 358 357 357 356 355
333 326 321 322 321 320 330 341 342 341 342 341 345 346 346 354 358 352 356 366 363 358 362 364 363 361 356 356 355 352 348 346 344 345 347 341 338 351 364 364 355 347 347 350 351 351 352 352 351 353 352 351 353 355 356 358 358 357 358 357 358 360 361 361 362 364 363 363 363 362 361 361 361 361 362 361 361 361 359 359 358 358 358 358 357 357 355
335 328 323 320 320 325 341 349 339 335 341 345 347 344 344 357 361 351 352 363 362 361 365 365 369 376 367 357 361 359 349 345 347 353 359 352 342 343 349 355 356 350 347 350 353 355 356 355 353 355 354 353 353 354 356 357 357 357 357 357 357 358 359 360 361 363 363 363 363 362 361 361 360 361 361 361 362 361 360 360 359 359 359 358 357 357 355
337 333 328 323 323 332 343 344 337 335 342 347 343 334 340 360 363 350 351 360 359 359 362 359 363 373 367 359 360 355 348 352 357 361 367 369 369 367 355 346 348 349 349 352 354 356 357 356 356 356 356 355 355 354 356 356 357 357 357 357 357 357 357 359 359 361 363 363 363 363 362 362 361 361 361 361 362 361 360 360 359 359 359 358 357 356 355
340 336 332 328 330 339 342 338 337 339 338 337 333 331 346 362 358 350 353 359 358 358 360 357 355 357 356 355 356 354 355 364 365 362 365 368 375 383 375 356 345 345 350 353 353 353 355 357 358 359 359 358 355 355 356 356 356 357 357 357 357 356 356 357 357 359 362 363 363 363 363 362 362 361 361 361 361 362 361 360 359 358 358 357 356 354 354
341 338 336 333 333 338 337 335 341 342 333 331 334 342 354 356 352 353 357 359 360 360 360 358 355 352 352 353 353 352 357 364 365 362 363 365 365 366 368 363 344 339 350 356 353 352 354 355 358 360 360 360 357 356 356 356 356 357 356 356 356 355 355 356 355 357 361 362 363 363 363 363 363 362 362 362 361 362 360 359 358 356 355 355 354 352 352
341 339 341 341 340 339 335 336 347 349 340 342 348 352 351 349 350 355 358 360 362 361 360 360 358 359 361 360 357 358 359 361 364 363 359 363 364 360 365 368 353 347 366 371 356 354 357 356 358 360 359 359 359 357 357 357 356 356 356 356 356 354 354 354 355 357 359 361 363 363 363 364 363 363 363 362 361 361 359 358 357 354 353 353 351 350 350
343 342 344 343 340 338 335 336 341 344 344 350 355 351 347 348 351 353 358 361 360 358 359 361 360 362 365 363 363 366 364 360 364 365 361 362 362 357 360 364 354 355 376 375 355 354 361 359 359 361 360 360 359 358 359 358 358 357 356 355 355 354 353 354 355 357 359 362 363 364 364 365 364 363 363 361 360 359 358 356 355 353 351 351 349 347 347
342 343 344 343 339 336 335 336 336 336 338 345 348 348 351 353 352 352 355 355 354 354 356 357 358 359 360 360 361 362 361 359 359 359 356 355 354 351 352 355 353 356 367 363 352 353 357 356 358 360 360 361 360 358 360 360 359 360 359 358 358 356 355 356 357 359 362 363 364 365 365 365 363 362 361 359 357 356 355 355 353 351 349 348 348 346 345
341 341 340 339 340 337 334 333 334 334 334 336 339 344 349 350 349 350 350 349 350 351 351 353 356 355 355 357 358 357 357 357 356 354 351 349 349 348 347 348 350 353 355 352 349 349 348 348 352 354 356 358 358 356 359 361 362 361 360 362 363 361 360 361 362 364 365 365 365 365 364 363 362 361 359 358 355 353 352 351 350 348 346 345 345 344 343
341 344 341 338 339 339 334 332 333 334 333 333 333 335 337 339 340 341 343 344 345 346 347 350 351 351 351 352 352 352 353 353 352 352 351 349 348 347 345 345 347 348 348 347 346 346 345 345 348 350 351 354 355 357 359 361 362 363 365 366 367 366 365 366 365 366 365 363 362 362 361 360 359 357 357 356 353 350 348 347 346 345 344 343 342 341 341
341 345 341 338 339 338 333 332 333 333 334 334 331 330 331 332 333 333 333 335 337 339 342 344 345 346 347 347 348 348 348 349 350 350 350 350 347 344 343 344 344 344 344 343 343 344 344 345 346 347 348 350 353 358 361 362 363 366 368 368 368 367 367 366 365 364 363 361 359 358 356 356 355 354 353 351 348 345 346 346 345 343 342 342 341 341 341
342 343 339 339 344 341 334 332 333 332 332 332 330 328 329 329 330 330 330 330 331 332 335 338 340 342 343 344 346 346 345 346 347 348 349 351 349 345 343 344 344 343 342 342 342 342 342 342 343 345 345 346 350 354 356 359 362 363 364 365 366 365 365 364 363 362 360 357 355 353 351 351 350 348 348 346 343 342 344 346 347 345 343 343 342 342 343
343 342 340 340 344 342 336 332 332 331 331 332 329 328 327 328 328 329 329 329 329 329 330 333 336 337 339 340 341 342 344 346 347 346 347 349 348 346 343 343 344 343 342 342 341 340 339 341 343 344 344 343 347 350 353 355 355 354 354 355 354 353 354 354 353 354 353 350 347 346 345 344 342 341 341 342 343 344 345 346 347 347 346 346 344 343 343
341 339 338 339 341 340 335 332 331 331 333 334 332 330 329 328 327 327 328 328 329 328 328 330 332 334 335 335 336 337 338 340 342 344 344 346 348 347 344 343 343 343 343 342 341 340 339 339 341 343 343 342 343 347 350 351 349 346 345 346 345 344 344 344 343 344 343 342 341 340 339 337 336 335 336 338 342 345 345 345 346 347 346 345 344 343 341
338 337 338 339 339 337 333 331 331 331 333 334 333 332 330 328 325 324 325 326 328 328 328 329 330 331 332 332 332 334 334 335 338 339 341 344 346 346 346 346 345 344 344 343 342 341 340 339 337 338 340 342 343 344 345 346 345 343 341 341 340 340 339 339 339 339 338 337 337 337 336 335 335 335 334 333 335 339 343 344 344 344 343 343 342 342 341
336 337 337 337 337 336 334 333 331 330 332 332 331 331 331 328 325 324 324 324 325 326 327 328 329 329 331 331 331 332 333 334 336 337 339 342 343 344 346 346 346 347 348 348 347 346 344 342 339 336 337 341 343 343 343 344 344 343 341 339 337 337 337 337 337 338 337 336 336 336 336 336 335 335 335 332 330 331 336 340 342 343 343 343 343 343 343
334 335 334 334 335 336 337 336 332 330 331 331 329 329 330 328 325 324 322 322 322 322 324 327 328 328 329 330 330 330 331 333 335 336 337 339 340 342 343 344 345 346 347 348 348 346 344 343 343 342 341 343 343 344 346 347 346 345 343 341 339 339 338 337 337 337 337 336 336 336 336 336 336 336 335 334 332 331 332 334 336 338 340 342 343 343 343
334 334 333 334 335 334 334 334 332 330 330 330 330 331 330 328 325 322 321 321 321 320 321 323 326 327 328 327 327 328 329 331 333 335 336 337 339 340 341 342 343 343 343 345 346 345 344 343 342 342 343 345 346 346 347 347 347 346 344 342 341 340 339 338 338 337 337 337 337 337 336 337 337 335 334 334 334 334 333 333 331 331 333 337 340 341 341
333 334 334 334 333 331 329 329 329 329 329 329 330 331 330 328 325 323 322 322 322 322 323 323 324 327 329 328 326 327 329 331 333 335 336 337 339 340 340 340 341 341 341 342 343 344 344 343 341 340 341 343 346 347 346 346 346 345 344 343 342 341 341 340 339 339 338 338 339 338 338 337 336 334 333 333 333 333 334 333 332 331 331 334 337 339 340
332 333 333 331 330 329 328 328 328 329 328 327 327 327 327 327 327 327 327 326 325 325 325 325 325 326 328 328 327 328 329 331 332 334 335 336 338 339 340 339 339 339 339 339 339 341 342 342 342 341 340 341 344 345 346 347 347 346 345 345 344 343 342 341 340 340 339 339 338 338 338 337 336 335 334 334 333 333 333 332 332 331 331 332 334 335 335
330 330 330 329 329 329 329 328 327 326 325 324 324 324 325 327 328 329 329 330 329 329 329 329 329 328 328 328 329 328 327 328 329 330 332 335 337 339 339 339 339 339 338 337 337 338 338 339 340 340 339 340 342 342 343 346 347 346 345 345 344 343 342 341 341 340 339 338 338 337 336 335 334 334 333 333 333 332 331 330 329 330 331 332 333 333 332
328 328 328 329 329 329 330 329 329 328 326 323 322 322 323 326 328 329 329 330 332 333 332 333 334 332 331 330 328 326 323 323 324 327 330 333 335 337 338 338 338 338 337 337 336 337 337 337 338 339 339 339 338 338 342 345 346 345 345 345 344 344 342 341 341 340 338 338 337 336 334 333 333 332 332 332 331 330 329 328 327 329 330 329 329 330 331
328 327 328 328 328 328 329 329 329 330 328 326 324 323 323 324 325 327 328 329 330 333 334 334 334 333 331 330 329 326 322 319 320 323 326 330 333 335 336 336 336 336 336 336 336 336 336 336 336 338 339 339 338 339 343 345 345 345 345 344 343 343 342 341 341 340 339 338 337 336 334 333 333 332 332 331 330 330 329 328 327 327 327 327 327 329 331
328 328 328 328 329 329 328 328 328 328 328 327 326 325 325 325 325 327 328 328 329 333 334 333 331 329 329 330 330 326 322 320 321 322 323 326 329 330 331 333 334 334 334 336 336 335 335 335 336 337 338 339 339 340 341 343 343 344 344 343 342 341 341 341 340 340 340 339 338 337 336 335 334 333 332 331 330 329 329 328 328 328 328 328 328 330 330
327 327 327 327 328 329 329 328 328 328 328 327 327 327 327 327 328 329 329 329 329 331 330 328 327 328 330 330 328 325 323 325 328 327 324 325 327 326 323 325 330 332 334 335 336 336 335 333 334 337 338 338 338 338 339 340 341 341 342 342 342 341 340 340 340 340 340 339 339 339 337 336 335 334 333 332 330 329 328 328 328 328 328 327 327 328 328
326 327 326 326 326 326 328 328 328 327 327 328 328 328 327 327 328 329 330 330 329 328 325 325 327 329 330 330 329 328 328 329 328 325 323 325 328 327 321 318 323 329 332 333 334 336 337 334 333 334 336 336 335 336 336 338 339 339 339 340 340 340 339 339 339 339 340 339 339 339 338 337 336 335 334 333 331 330 329 328 327 326 326 325 325 325 326
326 326 327 326 325 325 326 328 327 326 327 328 328 328 327 328 328 328 328 328 327 326 325 325 327 328 329 330 331 332 331 329 326 324 324 327 330 331 328 324 325 328 331 332 331 332 334 335 334 333 334 335 334 334 334 335 335 336 336 337 338 338 338 338 338 338 338 339 339 338 338 337 337 336 335 334 333 331 330 328 327 325 325 324 324 324 324
326 327 327 327 326 326 326 326 326 326 327 328 327 327 327 327 327 326 327 327 327 327 327 327 327 327 328 328 329 330 331 331 330 329 329 331 332 332 332 331 330 331 333 334 332 329 328 330 331 332 333 334 334 334 334 333 332 332 333 334 335 335 336 336 336 336 336 336 337 337 336 336 336 335 335 334 333 332 330 329 327 326 326 326 326 325 324
327 326 326 326 326 325 324 324 325 325 326 327 327 326 326 326 325 326 326 327 327 327 327 327 327 327 328 328 329 329 329 330 330 330 330 330 331 330 331 331 332 332 332 333 334 332 330 329 330 332 332 333 333 335 334 333 332 332 333 334 334 333 333 334 334 334 333 334 334 334 333 334 334 334 333 333 332 331 330 329 329 328 328 328 327 325 324
325 325 324 323 324 324 323 323 324 324 325 326 326 326 325 325 325 325 326 326 326 327 327 327 327 327 327 327 327 328 328 329 329 328 328 329 329 329 330 330 332 332 332 332 332 333 331 330 330 331 332 333 334 335 334 334 333 332 333 333 333 333 333 333 333 332 332 332 331 332 332 333 333 333 333 332 332 331 331 330 330 329 329 328 326 325 324
324 325 324 323 323 323 324 324 324 323 324 324 325 325 325 324 325 325 325 325 326 326 326 326 326 327 327 327 327 327 327 328 327 327 328 328 328 328 329 330 331 332 332 330 329 330 330 329 328 328 329 330 331 332 332 332 332 332 332 332 333 333 333 332 331 331 331 331 331 331 331 331 331 331 331 332 332 332 331 331 330 330 329 329 328 327 326
324 324 324 324 323 323 323 323 323 323 323 323 323 324 324 324 325 325 325 325 326 326 326 326 326 325 326 326 326 327 327 327 326 326 327 327 327 327 329 330 330 330 330 329 328 328 328 328 328 328 328 329 329 329 329 330 330 330 330 331 331 332 332 331 329 329 330 331 331 331 329 327 327 327 327 329 330 331 331 331 330 330 329 329 328 328 327
325 324 324 325 324 323 321 322 322 323 323 323 323 323 323 324 325 325 325 325 326 326 327 327 327 326 326 326 327 327 327 327 327 327 327 327 327 328 329 330 329 329 328 328 327 326 326 325 326 326 327 328 328 328 328 328 328 328 328 328 329 330 331 330 329 329 329 329 330 330 329 326 325 326 326 326 327 328 329 330 329 329 328 328 328 327 327
324 324 324 325 324 322 320 320 321 322 322 322 322 322 322 322 323 324 325 325 325 325 326 326 326 326 326 325 325 325 326 326 326 326 326 326 326 327 329 328 327 325 324 324 324 322 321 322 323 325 325 325 325 326 326 327 327 327 327 327 328 329 328 328 328 328 327 327 327 327 327 326 326 326 326 325 324 325 326 327 327 326 326 326 327 326 326
322 321 321 322 322 321 320 320 320 321 321 320 320 321 321 321 321 321 322 322 322 322 322 322 324 324 325 325 324 325 325 325 324 324 324 324 325 326 327 327 325 323 321 321 322 321 320 320 322 324 324 323 323 322 323 324 325 326 325 326 326 326 326 326 326 326 325 325 325 325 325 325 325 325 325 324 322 320 320 321 321 321 322 323 322 321 321
319 319 319 319 319 318 318 318 319 319 319 318 318 319 319 319 319 319 319 319 319 318 318 318 319 320 321 321 321 321 322 321 322 322 323 324 325 325 324 325 326 324 322 321 322 322 321 320 319 320 321 321 321 321 321 322 322 323 323 324 324 324 324 324 324 323 323 324 324 323 323 322 322 322 322 322 320 317 315 314 315 316 316 316 315 314 315
318 318 318 318 317 317 317 317 317 317 317 317 317 317 317 317 318 317 317 318 318 317 317 317 317 317 318 318 317 317 317 317 318 319 320 322 322 322 322 323 325 325 323 322 322 322 322 320 319 319 319 320 321 321 320 320 320 319 320 321 322 323 323 323 323 322 321 321 321 320 320 320 319 318 318 318 317 315 313 313 313 313 313 312 312 312 313
317 317 316 316 317 317 317 317 316 316 317 318 319 318 317 316 316 316 316 316 316 317 317 317 316 316 316 316 316 316 316 316 316 317 317 318 319 320 320 321 322 322 322 322 322 321 320 320 320 319 319 320 320 320 320 320 320 320 319 319 319 319 319 320 321 321 321 320 319 319 318 318 317 316 316 315 315 314 314 313 313 313 313 313 312 312 312
316 315 314 313 313 314 315 316 316 316 316 317 318 317 316 315 315 315 315 315 315 315 316 316 316 315 315 315 315 315 315 315 316 316 315 316 316 317 317 318 318 318 319 318 318 318 319 319 319 319 318 318 319 319 319 320 320 320 319 319 319 318 317 318 318 318 319 318 318 317 317 317 316 315 315 315 314 314 314 314 314 313 313 313 312 312 312
314 313 311 311 311 311 312 313 314 315 316 316 316 316 316 315 315 315 315 315 315 314 314 314 314 314 313 313 313 314 314 314 314 314 314 313 313 314 314 314 314 314 314 313 313 313 315 316 317 317 316 317 317 318 318 319 319 319 319 319 319 319 318 318 317 317 317 317 316 316 316 316 315 315 315 315 315 314 314 314 314 314 313 313 313 313 312
311 311 310 310 310 310 310 310 311 313 315 315 315 314 315 315 315 315 315 315 314 314 314 313 313 313 312 312 312 312 312 312 312 312 311 311 311 311 312 311 311 310 310 310 309 309 310 311 312 312 312 313 314 316 317 318 318 317 318 318 318 318 318 318 318 318 317 317 317 316 316 315 315 315 315 315 314 314 314 314 314 314 314 313 313 313 312
309 309 309 309 309 309 309 310 310 311 312 313 313 311 311 312 313 315 316 315 315 314 313 312 312 312 312 311 311 310 310 310 311 310 310 309 309 309 309 309 308 308 307 307 307 308 308 308 308 308 309 309 310 311 313 316 317 317 317 317 317 318 318 318 318 318 318 317 317 317 317 316 316 316 315 315 315 314 314 314 314 314 314 314 313 313 313
309 308 308 308 308 309 309 309 309 310 310 311 311 311 310 310 309 310 313 314 314 314 313 313 312 311 310 310 310 309 309 309 309 309 308 307 307 307 307 307 306 305 305 305 306 306 307 307 306 306 307 307 307 308 309 312 315 316 316 316 316 317 317 317 317 317 317 317 317 317 317 316 316 316 316 316 315 315 314 314 314 314 313 313 313 313 312
Wind_Speed
20 19 17 18 14 8 10 14 15 16 19 21 19 16 10 11 9 11 8 9 10 8 7 8 8 10 10 6 6 8 6 6 9 12 10 9 10 10 10 12 14 15 16 16 17 17 18 19 22 26 28 31 33 34 35 37 38 40 41 40 40 40 40 41 43 43 43 42 42 42 42 42 42 42 42 42 41 40 40 41 42 42 41 41 40 40 42
18 21 18 19 18 12 9 12 14 15 18 21 21 18 15 13 12 10 9 11 11 7 8 10 8 9 8 5 4 4 4 3 4 9 13 13 12 11 11 12 13 15 16 17 17 17 17 16 18 22 25 29 32 34 36 38 39 41 41 41 40 40 41 42 43 42 42 41 41 41 41 42 43 43 42 42 41 41 40 41 41 40 39 39 39 41 41
12 19 20 19 19 17 12 10 12 14 16 18 19 18 15 12 11 8 9 11 10 6 7 9 9 7 7 6 3 5 7 6 4 6 10 13 15 16 16 16 16 16 16 16 16 17 17 17 20 24 27 30 33 34 35 37 39 40 41 41 40 41 42 42 41 41 41 41 40 41 42 42 43 43 43 42 41 41 40 40 40 39 38 39 40 42 41
6 13 20 22 19 17 13 12 12 12 11 13 14 14 12 11 9 7 7 8 7 7 7 8 10 8 8 9 6 5 7 8 8 7 8 10 13 15 17 17 15 14 14 14 16 17 16 18 22 26 27 28 30 32 35 38 39 40 40 40 40 41 41 40 40 41 41 41 40 41 41 42 43 43 42 41 40 40 39 39 38 38 39 40 42 42 40
7 10 16 21 17 13 13 13 12 10 8 9 9 9 11 12 11 8 8 9 8 7 8 8 10 9 8 10 8 7 7 9 9 9 8 9 11 12 14 15 15 15 14 13 15 16 17 19 25 29 31 30 31 35 38 39 39 39 39 40 40 40 40 40 40 41 42 41 41 41 42 43 42 41 41 41 40 39 39 38 38 38 39 40 41 41 40
7 14 12 14 14 12 11 7 9 13 12 11 8 7 8 10 9 6 5 6 7 8 8 10 11 10 6 5 6 3 4 6 9 10 9 9 9 10 11 12 14 14 14 14 15 17 21 26 31 34 35 34 36 38 38 36 36 37 38 39 39 39 39 40 41 41 41 41 41 41 42 42 41 40 41 40 39 39 38 38 38 38 39 40 40 39 40
6 11 7 11 12 11 7 2 4 10 12 13 10 2 1 5 7 4 1 0 3 4 5 7 10 8 4 3 2 4 3 1 6 8 10 10 9 10 12 12 13 13 13 14 15 17 24 30 32 32 33 35 36 35 34 34 35 37 38 38 38 38 38 39 40 40 41 41 42 41 41 40 40 40 40 39 39 38 37 37 39 39 40 40 39 39 41
5 5 5 9 8 5 2 2 3 4 6 10 9 5 5 4 3 4 5 4 4 3 0 3 6 6 6 7 5 6 6 2 3 6 8 9 9 9 11 12 12 12 12 13 14 18 25 28 28 29 32 35 34 32 33 35 36 37 37 36 36 37 38 39 41 41 42 42 41 41 41 40 40 40 39 39 39 38 36 37 38 38 38 39 39 40 40
4 3 5 5 3 3 2 2 1 2 5 9 10 5 3 5 4 3 7 5 4 5 2 3 4 2 5 8 7 8 7 5 2 2 5 6 7 7 7 9 11 14 17 20 21 24 25 26 27 30 34 36 33 30 31 33 34 35 34 34 35 37 38 41 42 43 44 43 41 41 40 40 40 40 40 39 38 37 36 36 36 37 38 39 40 40 39
2 2 4 3 3 5 5 3 3 4 6 8 11 8 1 5 5 0 6 7 4 4 4 3 3 2 7 6 4 6 7 7 5 4 3 1 4 7 7 8 9 13 19 22 23 24 23 23 28 32 33 33 31 29 30 32 33 32 32 33 35 37 40 43 44 44 45 44 42 41 41 41 41 40 38 38 37 37 37 36 36 38 38 38 37 38 38
2 2 4 4 4 4 4 2 2 6 9 9 10 8 1 5 5 2 4 7 5 5 6 5 4 6 6 1 4 6 4 4 2 4 6 6 3 3 7 9 10 13 19 23 23 22 20 23 30 34 32 32 30 28 30 33 32 30 32 36 38 40 43 45 45 45 45 44 43 41 41 41 40 39 39 38 37 37 38 38 37 37 36 34 34 34 35
5 5 5 4 2 2 7 10 8 4 5 9 9 4 3 5 5 3 5 8 6 5 7 6 7 6 4 3 5 6 4 2 1 3 2 3 2 1 4 10 14 16 19 19 17 17 20 27 33 33 31 30 29 29 31 32 31 32 36 41 43 45 46 45 44 43 43 43 42 42 42 41 40 39 38 37 36 37 37 36 35 33 33 32 31 31 31
5 6 6 4 2 3 11 16 17 12 1 6 5 5 6 4 2 1 6 7 5 5 7 6 5 4 3 4 3 4 4 3 3 3 2 1 1 1 3 7 13 15 15 15 15 18 25 30 30 28 27 25 24 26 27 25 28 37 43 46 46 46 45 42 42 42 42 43 43 42 41 40 38 37 37 37 37 37 35 33 31 30 29 29 28 27 27
3 4 6 4 2 2 14 21 17 9 0 4 5 5 4 4 4 4 6 6 4 5 8 7 5 4 3 3 3 5 7 6 6 6 6 6 5 5 3 2 8 10 11 13 16 19 22 21 20 21 23 22 23 25 23 23 32 39 41 43 44 44 41 40 40 42 42 42 42 40 38 37 36 35 36 36 37 36 33 30 29 27 26 26 25 23 22
1 3 5 3 2 4 17 21 13 5 3 4 5 4 3 3 5 6 6 6 4 5 7 7 6 6 7 7 7 7 8 7 8 8 8 8 7 7 6 4 2 7 7 7 11 16 19 18 17 19 19 18 19 20 21 30 41 43 41 42 41 38 36 36 37 40 41 41 40 37 37 38 37 35 35 34 34 33 32 30 28 26 25 25 24 23 21
1 1 2 2 4 8 13 11 6 6 6 2 5 6 4 2 4 5 6 6 6 7 8 8 8 8 8 8 8 8 9 9 9 9 9 9 9 8 8 9 7 1 5 6 7 9 9 11 14 17 19 18 15 13 18 27 32 32 34 38 36 32 31 32 33 35 36 38 39 38 38 39 36 34 34 33 32 32 32 31 29 27 26 26 25 24 23
2 2 4 4 5 8 9 6 5 9 11 7 4 6 7 5 3 4 6 6 6 7 9 9 9 8 7 8 8 9 9 9 9 9 9 9 10 9 9 13 16 12 6 6 7 9 11 10 3 4 9 11 8 4 8 12 10 10 13 16 21 26 29 30 31 33 34 36 37 38 39 39 37 35 34 33 32 32 32 32 31 28 26 26 26 25 24
1 2 4 5 6 8 9 9 7 9 12 12 9 8 6 6 5 5 6 7 6 7 9 10 9 7 6 8 9 8 8 9 9 9 10 10 10 11 11 14 17 16 15 15 14 14 18 20 17 12 8 7 6 3 1 3 3 4 5 9 16 22 25 29 31 32 32 32 33 35 37 38 38 37 36 35 34 33 32 31 30 28 27 26 26 25 25
0 1 2 5 7 7 9 10 11 13 13 12 11 10 7 5 8 8 7 7 8 8 9 10 9 7 8 8 8 8 8 9 9 9 10 9 10 10 12 14 16 16 15 14 14 14 17 21 22 19 17 15 12 8 3 4 7 10 13 17 18 19 21 26 30 32 33 33 33 34 35 36 35 34 36 37 35 32 31 30 29 28 27 27 26 26 24
0 1 3 6 6 5 7 9 9 11 12 11 10 10 8 7 9 10 9 9 9 9 8 8 10 10 9 8 8 8 8 8 8 8 8 8 8 10 13 16 17 16 13 12 13 13 13 17 21 21 20 19 15 12 8 7 12 16 18 21 22 21 21 22 25 29 33 35 36 35 34 34 34 32 32 33 31 29 30 32 32 31 29 28 27 26 25
1 1 4 6 5 4 8 11 10 10 11 11 10 10 10 9 9 12 14 11 9 9 8 8 10 12 10 8 9 9 8 8 9 8 8 8 8 9 12 15 17 16 13 12 13 13 13 16 19 19 19 18 16 15 14 12 15 18 19 21 22 21 22 22 24 27 31 33 35 37 36 35 34 31 31 32 30 28 29 33 34 33 30 29 28 27 27
1 0 3 5 2 2 6 9 11 11 11 11 11 9 11 11 10 10 13 12 10 11 10 9 11 12 9 8 9 10 8 8 8 9 9 9 8 9 12 13 14 14 13 12 12 10 10 13 18 18 17 16 15 15 16 17 18 16 15 17 18 16 15 14 15 20 26 29 32 37 40 39 36 32 31 33 34 32 29 29 31 30 28 27 26 25 25
1 1 1 1 1 1 4 7 8 9 9 10 10 10 9 10 8 8 10 11 11 12 11 10 11 11 9 9 10 11 9 8 8 9 10 10 9 9 12 11 10 10 9 8 8 5 3 5 11 14 17 19 18 17 18 21 22 18 15 14 16 17 17 17 13 12 16 20 24 28 31 34 36 35 32 29 29 29 28 27 27 26 24 22 20 20 22
2 2 1 2 4 1 3 5 7 7 7 8 7 8 9 8 7 7 9 10 10 10 10 10 10 10 10 10 11 11 11 10 9 9 11 13 13 12 12 11 9 8 8 5 4 2 1 2 3 4 9 13 14 16 20 23 25 24 20 17 15 14 16 20 21 18 16 17 20 24 26 27 31 33 32 29 25 23 22 23 23 21 19 17 17 18 20
1 1 2 4 5 1 2 3 5 7 8 7 6 5 7 7 5 6 9 9 8 8 9 9 9 9 10 10 10 11 10 9 10 11 12 14 15 14 13 12 11 10 9 8 8 7 6 4 4 3 4 7 6 11 17 24 29 29 26 23 21 17 16 20 25 26 26 25 25 28 28 26 26 28 29 27 25 23 22 20 20 19 18 19 20 21 20
3 3 4 5 6 2 3 3 5 7 8 6 5 6 6 6 5 7 9 9 8 7 8 7 7 9 10 10 9 10 9 10 13 14 12 11 12 12 12 13 15 17 17 16 15 15 16 15 11 8 7 5 3 6 11 19 27 30 28 27 26 20 16 17 21 23 27 29 29 28 27 26 26 26 27 28 28 27 25 22 19 18 19 21 22 21 19
3 5 5 5 5 3 3 3 3 5 4 4 5 8 6 7 4 6 8 9 9 10 9 8 7 8 10 10 10 11 11 12 14 13 11 10 11 12 14 17 21 23 24 23 20 19 20 20 17 15 14 11 6 6 9 14 21 27 29 32 32 27 20 18 18 20 22 26 28 27 25 24 24 24 26 27 28 27 25 23 21 19 19 19 20 19 17
3 4 3 4 5 4 4 3 3 4 4 3 5 6 3 5 4 8 9 9 10 10 10 10 9 8 7 7 8 9 11 11 11 10 10 11 14 16 18 20 23 24 25 24 23 22 22 20 18 17 16 15 12 10 13 17 20 20 23 27 31 33 30 25 23 23 24 26 28 28 27 25 24 24 24 23 22 23 24 24 24 22 21 20 19 18 17
4 4 4 6 7 6 4 3 4 5 5 5 5 4 2 2 5 8 8 7 8 8 8 8 9 9 7 6 6 7 8 9 9 9 11 14 18 20 19 20 24 27 27 25 24 24 24 22 21 21 18 17 15 11 11 18 20 18 19 21 24 28 30 28 27 27 26 26 27 28 28 28 27 27 25 22 21 22 23 23 24 24 22 22 21 20 19
5 6 8 8 7 6 5 4 5 5 5 4 4 4 3 4 6 6 6 6 7 7 6 6 6 8 7 7 7 7 7 7 10 12 13 16 19 20 21 22 23 22 21 21 22 23 24 24 24 22 18 16 14 9 9 17 20 18 19 20 21 23 25 26 26 27 26 25 26 27 27 27 27 27 26 24 23 23 22 21 22 23 23 23 22 22 22
7 9 10 10 9 8 5 4 5 5 2 0 1 2 3 5 6 5 6 6 6 5 6 6 6 6 7 7 8 10 10 9 11 14 17 19 20 21 22 23 19 14 14 18 22 23 23 25 25 22 18 16 14 10 11 19 21 19 19 20 20 21 23 24 25 25 24 24 24 24 24 25 25 25 24 23 22 21 20 20 21 22 22 22 21 23 25
9 10 11 11 10 9 7 5 5 3 2 1 2 3 3 4 5 4 4 4 5 5 6 6 5 6 7 7 9 10 10 11 11 13 16 19 21 21 21 21 20 19 20 22 24 24 23 23 22 21 19 18 16 13 14 19 21 20 20 20 20 21 22 23 24 24 24 23 22 22 22 23 24 24 24 22 21 21 21 21 20 20 21 21 21 22 25
8 9 9 8 8 8 7 6 5 4 2 0 2 2 2 3 3 3 3 4 4 4 4 4 5 6 7 8 7 7 8 10 11 11 12 14 17 20 20 20 20 22 23 24 24 24 23 21 20 21 21 20 19 18 18 19 21 21 21 21 21 21 21 21 23 24 24 23 22 23 23 23 23 23 22 20 20 21 21 21 20 21 21 21 21 23 25
9 8 7 6 7 7 6 5 4 3 4 3 2 2 2 2 2 2 2 3 3 3 3 3 5 7 8 8 8 7 7 7 6 6 8 11 14 16 18 20 21 21 23 25 25 24 22 21 20 20 20 19 20 20 21 22 22 22 22 22 23 22 22 21 22 22 21 21 21 21 21 22 22 21 21 21 22 23 22 21 20 21 20 19 20 23 25
6 6 6 6 6 6 5 4 3 3 3 4 5 5 5 4 3 3 2 1 0 1 2 1 4 6 8 8 7 6 6 5 4 5 8 12 14 14 15 19 21 21 22 24 24 22 20 19 18 18 19 19 19 21 22 23 24 22 21 21 22 22 22 21 21 21 20 20 20 20 20 20 21 21 22 23 24 24 23 22 20 20 20 20 21 23 24
2 3 3 4 4 4 3 3 3 4 4 5 5 6 7 7 7 6 6 6 5 2 1 1 3 4 5 5 4 4 4 4 4 6 8 11 13 15 16 17 18 17 16 18 20 20 20 18 16 15 17 17 17 16 16 17 19 20 20 19 19 19 19 18 17 17 16 17 18 18 19 19 20 21 23 24 24 23 22 22 21 21 22 21 20 20 22
3 2 2 3 4 4 4 5 6 6 6 6 6 7 7 7 8 10 11 11 11 12 12 10 8 6 6 7 8 8 8 9 9 10 11 13 16 19 18 16 15 14 11 11 14 16 17 16 14 12 12 14 15 14 12 11 12 13 13 13 15 16 16 15 14 13 13 14 16 18 18 19 21 22 22 23 23 22 21 22 22 21 20 19 18 17 19
6 6 6 5 5 6 7 8 10 9 7 7 7 7 8 8 10 12 13 13 14 15 16 16 13 12 12 13 12 12 13 15 16 17 17 17 19 18 15 12 12 12 10 9 12 15 14 12 10 8 8 9 11 12 11 9 9 8 8 11 14 15 15 15 16 17 18 18 18 20 20 21 21 22 22 22 23 22 22 22 22 21 19 18 18 19 21
8 8 8 7 7 7 8 9 9 10 9 8 6 7 10 12 13 14 14 14 15 16 16 16 15 14 13 11 10 10 13 16 18 19 19 19 18 17 15 14 15 14 12 12 17 19 17 13 11 11 11 10 9 9 8 6 7 8 10 12 14 15 16 17 18 19 19 18 18 19 20 21 21 22 22 23 23 23 22 22 21 21 20 19 19 20 21
5 5 6 7 8 8 7 7 7 9 11 11 8 8 10 13 14 13 13 13 14 16 17 16 14 11 9 8 8 9 12 15 17 19 19 19 18 15 14 16 19 18 14 13 15 17 18 17 16 16 15 13 11 10 8 6 8 10 11 12 12 14 16 17 15 14 14 15 16 18 20 21 21 21 21 22 22 22 22 21 21 20 19 18 17 17 18
4 4 6 7 7 6 6 7 7 9 11 13 12 12 13 13 13 11 11 12 14 16 18 17 14 11 10 12 12 13 15 17 18 20 20 18 14 10 8 11 17 19 17 15 15 15 16 16 15 16 16 14 11 10 9 8 8 10 11 11 10 11 13 14 13 11 10 12 15 16 17 19 21 21 21 21 21 20 20 19 18 17 16 16 16 16 16
4 6 8 7 6 6 7 8 7 8 10 12 13 14 15 16 15 13 12 13 15 16 16 16 15 14 14 15 15 16 17 17 17 18 18 16 12 8 6 9 15 17 17 17 18 18 17 16 14 15 16 16 14 8 6 7 6 6 6 7 8 9 10 12 13 10 10 11 13 15 15 17 19 20 19 19 19 19 18 17 16 15 14 13 14 14 14
6 7 7 6 6 7 9 9 9 8 9 11 13 14 14 14 15 14 13 13 15 15 15 15 15 15 16 16 16 15 15 15 15 15 14 14 14 13 11 11 14 17 18 19 20 20 20 20 18 16 17 18 15 10 6 5 4 4 5 7 9 9 9 10 11 10 11 11 13 15 15 16 17 17 16 16 17 18 18 17 15 13 12 11 10 10 9
10 10 8 8 10 11 12 11 10 9 9 12 16 17 15 14 15 15 15 15 16 16 16 15 14 15 16 17 15 13 13 14 15 15 13 12 14 15 15 15 15 16 19 22 21 20 20 19 18 18 20 21 19 17 15 11 4 2 4 5 6 7 8 9 9 9 8 8 10 10 11 12 14 15 14 13 15 18 20 19 18 16 15 13 11 9 8
14 15 15 15 15 14 13 12 11 11 13 18 22 22 21 21 21 21 21 20 20 20 20 20 18 18 18 17 16 16 18 19 19 17 13 8 8 12 16 16 15 17 21 25 26 24 22 20 17 17 22 26 25 24 22 19 13 9 7 4 2 3 4 4 3 3 2 2 6 9 10 11 13 14 15 16 18 21 24 24 23 22 21 19 18 16 14
16 18 19 18 16 15 16 18 19 21 22 21 19 19 23 25 25 24 23 23 21 22 24 25 24 23 23 21 20 21 23 25 27 26 22 17 16 19 22 21 19 21 25 29 29 28 27 26 22 18 18 22 25 26 26 26 23 19 14 9 4 3 2 2 2 1 2 1 6 11 13 14 16 18 19 21 22 23 22 22 22 22 21 20 19 17 16
17 18 19 18 18 19 22 24 24 23 19 14 10 11 19 24 24 23 24 26 25 25 25 26 26 26 27 26 24 21 21 21 23 26 27 27 27 27 28 27 26 27 30 32 32 32 31 30 28 25 21 21 23 25 26 26 26 24 23 21 18 13 9 5 4 4 4 6 10 11 12 16 20 21 22 22 21 20 19 19 19 18 17 16 16 15 14
18 17 18 21 22 23 24 24 20 14 11 11 11 12 17 21 23 23 24 26 27 27 27 27 27 26 27 28 27 26 23 20 17 17 22 28 29 29 30 30 30 30 31 32 32 32 31 30 29 29 28 27 27 27 26 26 25 24 24 25 25 23 20 15 9 5 5 9 12 13 14 18 20 20 19 18 18 17 17 16 16 15 14 13 13 13 13
19 19 20 22 22 22 21 18 12 8 9 13 16 16 17 19 21 21 21 22 23 23 24 25 25 25 26 27 27 28 28 26 21 19 23 28 29 29 29 30 29 30 31 32 32 32 32 31 30 30 30 30 29 29 28 27 26 24 23 22 23 23 23 21 17 14 11 9 8 10 13 16 17 17 16 15 14 14 14 13 13 14 14 14 13 13 11
20 19 18 18 18 19 18 15 11 11 14 16 17 18 18 17 14 13 15 18 19 19 20 21 23 24 25 26 26 27 28 28 26 26 27 28 28 28 29 29 29 30 31 32 31 32 32 33 33 32 31 31 30 30 28 27 27 25 23 21 20 20 19 19 18 17 17 15 12 9 7 8 11 13 14 14 14 14 13 13 14 15 15 14 14 14 12
18 17 16 16 18 20 21 20 18 18 19 19 19 21 21 19 15 14 15 15 15 16 17 18 19 20 22 24 25 26 26 26 25 26 26 26 27 27 28 28 29 30 30 30 30 30 31 32 33 33 33 32 32 30 29 28 28 26 25 22 20 19 18 17 16 16 16 17 16 15 13 10 7 6 7 10 13 14 15 15 15 16 15 15 15 14 13
21 21 21 21 22 23 24 25 25 25 24 23 23 22 21 20 19 18 19 18 15 13 14 15 15 17 20 22 23 23 24 24 24 24 24 25 25 26 26 26 27 28 28 28 27 27 27 28 29 30 31 32 32 32 31 29 28 26 25 24 22 21 20 18 16 15 14 14 14 14 14 14 13 12 10 7 5 7 9 11 12 13 14 15 16 16 16
Wind_Direction
218 204 206 211 207 193 194 203 202 195 197 201 204 209 187 148 186 229 205 184 208 226 241 244 238 240 245 250 239 225 224 220 178 157 165 190 206 211 204 197 193 187 188 190 187 185 185 186 187 187 190 192 192 192 192 191 192 192 192 193 193 193 195 197 199 201 202 203 203 204 204 206 208 210 211 213 213 213 212 211 212 213 213 213 213 215 216
229 210 207 210 215 210 196 204 206 198 197 201 207 211 195 181 205 211 182 200 220 221 228 231 231 239 240 238 229 180 173 230 210 172 169 173 183 194 201 205 201 195 194 191 186 184 183 184 185 185 189 192 192 192 192 192 193 193 192 193 194 194 196 200 200 200 201 203 203 204 203 205 207 209 211 212 213 213 213 212 213 213 214 214 215 217 218
241 216 207 208 216 213 202 205 207 204 204 202 207 212 201 196 215 205 185 211 233 241 237 238 241 235 226 229 210 155 176 189 189 204 193 177 178 183 190 200 204 201 197 189 184 183 182 184 186 188 191 192 193 194 193 193 194 192 192 193 194 196 199 201 199 199 201 202 203 203 204 205 207 208 210 211 212 213 213 213 213 213 213 214 216 218 218
273 228 210 207 215 216 213 215 208 203 206 207 209 209 194 188 197 196 195 214 239 251 234 234 242 226 214 226 205 163 203 200 170 189 205 192 188 186 188 194 198 199 196 188 185 184 184 187 189 190 192 192 193 195 194 195 194 191 192 194 196 198 200 200 198 199 201 202 202 203 204 205 207 208 209 211 212 212 212 212 212 212 212 215 217 219 219
302 269 224 206 208 219 226 224 205 186 194 211 216 214 204 197 185 180 205 215 217 221 205 208 235 229 210 218 202 167 193 197 175 180 197 199 196 192 192 192 188 188 189 188 187 186 187 190 191 192 192 191 194 198 197 196 193 191 192 195 197 199 200 198 198 199 200 201 202 203 204 205 207 207 208 210 211 211 211 212 211 211 213 215 217 218 218
292 293 253 201 197 217 231 226 178 172 189 199 200 213 221 219 212 202 220 225 215 219 204 189 213 229 217 225 244 226 189 191 183 179 186 195 194 188 191 194 191 187 185 185 189 190 191 193 195 195 193 194 198 200 198 196 192 191 194 196 198 200 199 199 200 200 200 201 203 204 205 205 205 206 208 210 210 210 210 210 211 212 213 215 216 217 218
270 296 260 196 199 215 229 260 159 175 192 183 166 155 282 246 244 234 73 27 206 227 233 196 196 208 170 114 327 338 14 234 205 188 185 189 190 186 185 192 196 192 188 187 189 193 196 197 197 195 194 197 199 199 196 194 194 195 195 196 198 199 199 200 201 200 200 201 202 203 204 204 204 206 208 209 210 210 209 209 211 213 214 215 216 217 219
254 284 240 207 214 212 206 5 50 116 161 158 135 65 0 324 270 180 131 120 134 117 346 219 195 187 143 102 53 23 35 55 190 204 201 190 192 196 186 183 188 186 188 194 196 200 201 199 196 195 196 199 199 196 195 194 195 197 197 197 198 198 199 200 201 200 200 201 202 202 202 202 203 205 206 207 208 208 208 210 212 213 215 216 217 218 219
226 252 258 244 232 191 146 58 39 130 155 159 139 109 325 320 337 143 140 131 122 104 78 267 245 196 97 65 23 357 0 17 62 182 202 184 189 206 194 185 189 188 191 197 202 206 205 199 196 197 199 200 197 194 194 195 197 199 199 200 199 198 200 201 202 201 201 200 200 200 200 200 202 203 204 205 206 206 206 208 210 212 214 216 218 218 218
225 249 256 236 194 201 203 211 220 176 143 141 124 107 355 311 332 179 137 120 111 94 62 351 311 59 74 55 348 326 332 339 359 3 334 266 196 207 209 201 199 199 199 200 204 206 201 199 201 202 201 199 196 194 195 195 197 198 200 203 202 201 202 203 202 202 201 200 200 198 198 200 201 202 202 203 204 204 205 207 209 212 214 215 217 218 217
337 307 251 222 186 210 247 270 206 165 142 122 98 82 357 287 297 291 120 106 95 95 86 55 47 77 84 73 281 291 293 281 317 10 353 337 320 208 204 202 200 206 205 203 204 201 194 199 206 206 201 197 194 196 198 196 196 198 201 205 205 204 206 205 204 202 201 200 199 198 198 200 200 200 200 201 202 203 205 208 210 212 212 213 214 215 216
339 328 283 241 160 29 348 348 328 270 151 106 87 97 226 263 289 306 97 98 91 100 104 82 75 92 125 195 249 278 278 234 151 76 60 318 322 90 175 201 207 209 207 203 201 196 196 205 210 206 200 196 195 198 200 197 195 198 202 206 207 208 208 206 204 202 201 200 200 199 199 199 199 199 199 199 199 201 204 207 209 209 209 208 209 210 211
336 321 289 262 150 30 354 343 322 303 302 104 114 183 210 222 261 20 86 95 94 88 89 84 87 117 171 191 228 314 358 35 22 16 26 294 298 65 125 188 200 201 201 201 201 203 206 210 211 206 199 196 198 202 204 202 201 202 204 206 208 209 209 206 203 202 201 200 200 200 199 197 196 197 197 196 197 198 199 201 202 202 201 201 201 202 204
337 299 286 284 170 40 353 339 319 310 333 167 186 191 189 162 129 88 72 81 84 76 81 86 91 87 74 75 63 33 30 30 11 358 3 6 352 347 14 151 182 184 188 196 204 211 213 213 212 206 199 196 200 202 203 208 212 210 208 208 210 210 209 205 201 200 200 200 200 198 196 194 193 193 194 195 195 194 193 192 190 189 189 189 189 188 190
357 289 295 313 225 321 347 342 330 356 53 192 182 131 130 131 103 87 68 55 53 71 81 77 68 58 46 38 37 37 31 22 11 5 4 7 357 345 352 358 189 171 167 185 205 212 215 216 213 204 198 201 208 206 206 212 214 213 211 211 212 211 209 205 203 200 198 196 195 193 191 191 190 188 188 188 188 186 184 181 178 175 175 176 174 171 173
87 265 290 321 276 301 336 345 323 331 338 242 152 113 101 76 68 83 73 42 37 70 82 71 58 51 41 31 28 28 25 19 15 11 10 10 2 350 346 346 341 339 157 165 181 194 207 219 215 204 197 200 207 216 226 227 224 223 220 214 209 206 206 204 202 200 196 192 190 188 187 186 183 180 179 178 176 177 176 173 169 166 166 167 165 163 166
157 203 257 280 291 305 327 333 309 328 350 5 55 94 100 84 51 73 85 67 51 68 79 72 59 51 41 35 35 32 26 20 17 18 18 16 8 3 0 355 350 353 23 70 76 59 38 30 42 177 190 192 190 221 251 250 256 271 261 232 207 199 199 198 197 194 189 186 184 181 180 177 174 171 170 167 165 166 168 167 165 162 161 163 162 161 164
200 206 251 287 312 325 334 338 342 1 14 16 24 44 68 77 68 67 81 85 75 70 79 80 67 53 48 46 40 33 31 27 22 22 23 19 13 15 13 3 2 13 29 37 42 41 32 31 40 53 73 102 99 66 301 231 202 217 233 217 204 198 192 189 186 182 177 174 173 171 170 170 169 167 166 163 162 162 163 161 160 158 157 158 158 158 161
352 194 273 306 315 322 338 351 3 13 15 16 28 33 22 37 63 59 54 66 71 65 71 81 79 63 54 56 48 34 31 30 25 25 28 23 19 25 28 24 29 41 49 43 42 41 32 27 31 40 52 62 68 70 90 156 170 173 175 180 186 188 185 180 176 171 167 162 159 159 159 160 161 162 164 164 160 156 154 152 151 153 154 155 157 157 158
113 207 293 312 302 309 352 8 13 13 7 5 24 38 23 21 54 63 49 44 57 59 53 68 81 72 56 57 60 51 40 34 27 25 26 24 21 28 38 45 50 55 59 60 58 56 45 35 34 40 46 52 62 75 94 141 164 164 163 166 167 167 170 172 169 165 162 157 153 151 152 153 154 155 158 156 151 152 158 159 155 154 155 157 159 159 159
321 284 337 335 314 319 358 10 11 10 7 2 14 40 44 30 41 64 62 46 45 55 50 52 71 71 57 52 61 60 51 41 33 24 18 20 26 27 34 49 63 69 70 69 66 63 60 54 52 53 53 56 68 81 90 118 145 149 150 154 156 157 161 166 167 163 158 154 151 147 143 143 145 146 148 150 152 158 164 165 161 159 158 161 165 167 171
5 65 17 2 338 307 342 356 1 6 13 11 5 24 50 44 31 51 66 61 51 51 47 47 63 68 56 45 56 61 53 41 35 30 22 19 24 31 35 45 61 74 82 87 84 78 75 77 81 86 88 86 91 99 106 116 118 113 117 127 127 125 129 140 155 158 153 149 146 142 140 139 135 131 136 148 157 159 157 157 162 165 167 170 174 178 182
206 226 289 0 53 345 327 345 358 3 19 25 7 359 28 49 41 43 65 69 61 54 47 42 53 63 57 48 54 57 48 36 33 35 34 31 28 33 38 40 42 47 57 81 100 114 129 102 101 110 116 120 125 129 130 127 116 96 82 91 102 108 112 112 114 125 133 134 135 133 132 130 126 122 121 129 142 150 152 155 161 167 172 177 181 187 188
241 268 230 128 95 57 329 355 10 6 23 46 31 356 359 25 42 54 66 67 63 63 59 48 46 55 57 52 54 57 50 39 31 31 38 42 41 38 39 39 34 26 20 28 60 86 210 180 164 139 109 108 122 134 135 132 123 110 98 92 92 102 118 122 121 119 113 113 118 117 113 115 121 124 122 117 117 126 141 152 158 162 167 172 175 182 187
242 219 168 129 110 117 295 359 31 23 22 41 55 25 356 358 24 57 70 70 62 61 65 58 47 48 55 56 54 55 54 45 38 38 41 42 41 39 36 32 28 24 23 32 47 51 57 89 154 175 87 80 108 128 128 128 125 120 121 124 122 124 135 136 136 135 131 126 125 124 125 128 131 130 127 121 114 113 122 136 149 156 162 168 173 179 185
223 165 132 109 98 74 337 3 45 38 18 14 45 44 3 344 16 57 68 71 66 56 55 58 52 49 54 59 58 56 55 49 44 43 42 40 37 32 31 34 37 39 41 46 54 56 53 54 58 58 52 56 113 135 125 125 125 126 129 131 128 129 138 140 138 139 137 134 133 134 137 138 135 130 128 128 127 124 123 126 134 143 154 165 173 177 180
201 149 125 109 99 72 26 26 63 63 22 347 36 49 7 323 351 55 62 61 63 57 45 36 42 53 54 54 57 60 57 51 47 43 37 34 31 27 31 40 46 49 49 48 51 56 54 50 50 51 48 50 75 121 124 123 126 129 132 131 128 125 127 130 130 129 129 129 129 130 130 129 128 128 130 132 135 135 135 133 131 130 136 148 158 166 170
153 126 111 112 111 93 59 30 45 73 57 9 35 55 7 307 355 49 51 45 50 55 44 28 28 44 49 43 51 63 59 50 47 44 34 27 25 26 33 42 47 50 51 48 48 52 56 54 51 48 49 59 74 94 113 119 120 123 129 130 129 129 132 134 132 130 128 128 128 130 130 130 130 130 130 132 135 136 137 138 136 133 133 136 143 152 160
122 104 94 105 109 108 93 49 35 52 48 25 23 33 11 3 37 46 44 39 43 51 46 29 24 31 34 30 41 60 65 59 52 45 36 32 31 30 35 43 48 49 47 44 43 46 51 54 53 46 48 67 76 76 99 116 118 121 126 127 125 127 131 135 134 132 131 131 132 135 136 137 137 137 136 138 140 140 141 142 141 139 138 138 141 147 154
92 91 95 94 90 98 113 102 71 57 43 30 25 12 18 54 57 41 32 38 44 46 43 33 26 27 27 23 26 35 51 68 70 61 48 41 39 39 42 46 47 45 40 35 36 41 46 52 54 50 54 78 90 86 103 115 115 116 119 120 119 121 126 129 131 130 130 131 134 137 138 139 140 140 140 144 148 148 147 145 142 142 142 145 150 156 157
91 91 94 90 79 74 79 86 80 66 33 27 83 48 45 66 67 51 34 33 35 33 29 27 26 23 18 18 27 32 37 49 63 67 61 52 45 44 48 53 54 50 41 33 32 37 46 53 56 59 72 95 110 116 117 116 115 113 113 114 117 121 125 127 127 127 128 131 135 137 137 138 139 140 142 147 149 147 145 143 143 145 149 155 162 165 163
101 91 86 88 86 76 58 47 52 41 325 248 120 83 72 79 81 75 58 44 41 37 31 26 22 18 18 26 38 44 42 37 41 54 61 59 54 49 50 57 61 60 54 44 37 38 46 50 54 63 79 97 111 116 115 115 116 115 114 115 118 122 126 129 129 129 130 133 135 137 138 139 142 146 150 151 149 147 147 148 148 153 159 165 170 172 169
93 87 80 82 90 87 73 56 45 32 16 73 135 114 94 92 90 90 83 69 57 45 34 27 18 16 27 39 44 49 50 43 37 36 40 48 55 56 55 57 60 61 60 56 51 48 48 50 55 65 75 87 98 104 108 113 116 117 120 122 123 124 127 129 130 131 133 136 140 145 147 148 150 153 153 151 151 152 154 156 159 164 170 175 179 179 178
77 83 83 81 87 95 100 97 88 65 46 46 58 75 74 62 56 70 81 73 64 53 47 44 31 28 38 44 39 40 51 52 42 28 21 26 38 50 56 57 56 55 57 58 57 56 55 54 58 66 73 82 91 96 101 107 113 116 122 126 127 126 127 129 131 132 135 139 145 150 151 151 154 156 156 156 159 161 163 166 170 173 176 182 187 188 185
79 82 87 95 111 133 142 132 123 112 85 62 55 56 56 49 46 54 54 45 41 234 247 327 27 38 46 46 34 27 37 47 51 51 40 30 27 33 48 54 52 47 46 48 51 56 58 56 57 64 72 79 86 89 92 98 104 107 111 117 122 124 127 130 133 136 141 146 150 152 153 154 156 160 164 166 168 169 168 171 176 179 180 184 189 190 187
100 108 125 132 138 149 152 127 101 89 83 75 64 57 53 48 45 47 46 40 43 59 74 28 35 41 46 48 44 34 27 29 35 35 30 29 32 36 42 47 48 46 41 36 37 46 54 54 52 61 71 75 79 81 81 85 92 97 99 104 111 117 122 126 130 135 143 151 155 156 159 162 165 169 172 173 174 174 172 172 176 181 181 181 184 184 182
57 73 99 97 79 68 65 70 74 72 67 65 64 61 58 48 41 46 48 45 48 57 64 67 69 66 52 49 52 52 48 48 50 46 42 47 53 52 44 37 39 46 41 23 21 34 44 43 41 53 70 76 79 85 88 87 87 90 97 109 119 124 129 134 138 140 146 156 162 162 160 161 165 170 174 174 174 175 173 170 172 177 178 178 179 178 177
52 57 63 69 78 79 73 72 73 70 67 65 61 59 62 61 57 56 53 50 54 62 66 67 68 66 60 55 52 48 48 54 59 58 54 54 58 56 46 33 33 38 38 36 39 43 44 41 41 54 74 87 90 91 95 101 101 101 114 129 134 136 140 143 143 142 143 147 150 151 153 158 162 165 168 171 171 171 170 168 169 172 174 174 174 173 172
51 62 70 75 82 85 83 80 74 67 66 68 62 54 58 62 63 63 59 56 61 68 70 69 67 63 58 57 52 45 49 58 64 62 56 52 53 54 49 40 38 38 42 54 58 54 54 62 70 69 68 82 96 93 89 108 126 125 128 136 139 139 142 145 144 143 143 143 142 144 151 160 165 165 166 168 168 166 166 168 170 171 172 171 168 168 171
58 69 78 78 76 75 74 74 70 65 67 69 65 58 60 64 67 68 64 57 60 67 69 69 67 62 54 54 53 50 55 65 69 68 62 55 52 51 44 36 36 41 52 63 63 57 56 64 72 67 61 65 78 83 88 118 139 133 132 140 142 135 133 135 138 142 148 151 151 150 152 156 158 158 160 164 166 166 167 168 169 169 170 169 168 171 175
69 70 73 71 70 70 70 70 67 64 65 66 63 61 64 66 68 69 67 62 63 67 69 70 71 67 64 66 67 65 65 68 69 67 64 58 51 48 42 32 35 44 57 65 64 58 53 52 54 54 51 48 51 66 85 109 124 120 121 130 140 141 140 139 144 158 175 173 165 158 153 148 146 144 144 149 158 164 168 170 171 171 171 171 173 178 183
58 61 64 63 59 55 54 57 60 58 56 57 58 63 69 73 74 73 73 73 71 70 71 73 75 72 70 72 71 67 65 66 65 64 63 60 52 49 49 40 41 50 61 66 64 59 55 49 46 43 38 31 27 37 85 116 115 109 118 138 151 157 151 138 138 162 196 194 173 164 158 151 146 141 139 140 147 157 165 170 171 171 172 175 177 182 188
52 57 59 56 51 50 47 46 48 46 40 40 47 57 70 79 81 80 77 72 70 70 70 70 69 65 63 64 64 59 57 60 62 62 60 57 53 54 57 53 50 57 65 69 67 62 58 56 51 41 34 31 26 25 52 103 147 197 200 183 172 165 156 145 148 175 200 189 165 158 160 157 152 151 149 145 143 148 157 164 166 167 172 177 180 185 196
52 55 55 50 48 49 46 41 40 40 36 38 43 50 57 62 67 73 73 66 61 62 64 62 60 59 58 60 63 60 56 56 56 56 55 52 50 51 52 51 51 56 63 67 68 65 61 60 57 47 42 43 43 39 39 45 60 159 151 140 145 152 156 162 171 184 192 181 166 164 169 167 159 157 157 151 140 137 141 148 153 156 157 156 153 153 161
60 59 59 58 56 55 53 50 48 49 50 50 49 52 56 58 61 66 69 65 59 58 59 59 57 55 55 57 59 58 55 52 48 46 45 42 34 36 41 44 46 49 54 58 62 61 56 55 58 52 44 43 45 46 45 46 50 58 64 67 84 98 98 106 109 74 48 182 182 172 163 157 154 153 156 156 148 140 137 138 141 143 143 141 139 138 139
58 56 54 53 51 49 51 54 53 50 50 50 48 51 58 62 62 61 62 62 62 62 62 61 58 56 56 57 57 55 55 55 52 50 50 52 47 43 45 48 49 49 50 52 55 56 52 50 53 54 45 39 41 46 48 48 50 51 50 50 67 100 108 145 162 76 18 112 165 158 151 150 150 151 152 152 151 146 142 139 140 141 142 143 144 147 149
54 51 49 47 45 44 47 49 49 47 46 46 42 46 56 61 63 62 62 63 63 62 62 61 60 60 60 61 59 57 57 57 54 50 52 57 57 53 52 53 55 57 57 55 53 53 52 51 51 53 51 46 45 47 48 48 49 49 48 50 55 60 65 92 146 176 179 159 154 154 154 154 152 151 150 149 148 148 148 148 148 149 150 150 152 156 159
53 50 47 45 45 43 43 44 44 41 40 43 44 48 56 62 63 62 64 66 67 66 65 65 64 64 65 65 62 61 62 64 59 48 50 57 61 58 56 56 59 61 61 57 53 52 55 56 54 53 52 51 50 50 51 50 49 47 46 47 49 49 51 58 71 97 138 149 152 156 158 158 156 155 154 154 153 153 156 160 164 166 166 165 166 170 174
54 52 48 46 44 42 41 41 39 29 32 42 46 47 54 62 63 62 63 68 70 70 70 70 69 68 68 68 66 64 65 68 68 61 56 59 62 61 59 58 59 59 59 57 53 51 54 57 56 54 53 50 48 47 48 49 49 49 47 46 46 46 47 49 52 57 65 85 118 146 158 161 162 160 159 159 161 164 168 175 181 183 182 183 184 185 189
53 50 47 44 43 42 42 42 38 32 35 43 46 45 46 50 53 55 64 75 79 76 74 75 77 76 73 71 70 69 69 69 69 67 64 62 62 62 62 61 59 58 57 56 53 51 51 52 52 51 51 49 46 44 44 46 48 50 49 48 46 46 44 43 44 46 48 51 58 76 114 148 164 170 173 176 179 183 187 192 195 195 195 196 195 194 199
56 52 49 47 47 47 47 47 45 43 41 42 44 44 44 43 39 35 44 63 81 87 83 78 78 81 79 75 71 71 73 72 70 70 68 66 65 65 65 62 59 57 55 53 52 50 50 49 48 47 48 47 45 44 44 45 46 48 50 51 50 47 45 43 41 40 39 42 46 51 55 62 82 124 167 187 195 198 199 199 198 199 201 203 202 202 205
55 50 46 43 42 42 41 39 37 36 35 36 37 38 40 43 44 39 34 35 49 77 91 86 78 77 80 77 72 71 72 74 73 71 69 67 66 66 65 61 58 56 55 54 52 49 47 47 47 46 46 45 44 43 43 44 46 48 50 52 52 51 51 51 51 48 44 43 46 49 51 52 55 60 68 86 130 177 192 196 198 201 202 202 204 206 207